Weather in Portland

United States     45°31′09″N   122°40′17″W
temp.,
°C
wind,
m/s
gust,
m/s
humid.,
%
clouds,
%
prec.,
mm/h
press.,
hPa
HPBL,
m
25 may, wed
wed2523:00+14sse1180100 0.0 101625
02:00+13se1188100 0.1 101719
05:00+12sse128494 0.2 101752
08:00+13s017268 0.0 1018241
11:00+18s236397 0.0 10171223
14:00+20ne125773 0.0 10161218
17:00+20nne3256100 0.0 1014972
20:00+17nne237697 0.0 101480
26 may, thu
thu2623:00+14nne1280100 0.0 101457
02:00+13nne1274100 0.0 101364
05:00+12n1177100 0.0 101239
08:00+14n0073100 0.0 1012176
11:00+19wnw1160100 0.0 1011558
14:00+20wsw2459100 0.1 10111074
17:00+15ssw2394100 1.9 1012109
20:00+14sse129583 1.1 101241
27 may, fri
fri2723:00+12s229865 1.8 101357
02:00+12s1698100 0.7 1014260
05:00+11s1398100 1.9 101489
08:00+12s2596100 0.1 1015240
11:00+15sw3472100 0.6 10151059
14:00+17sw3561100 0.6 10151203
17:00+14ssw1488100 2.1 1013239
20:00+12s2288100 0.7 101234
28 may, sat
sat2823:00+11nnw1188100 0.9 101121
02:00+10nne0196100 0.9 101045
05:00+10e1598100 3.7 1007299
08:00+9ne2798100 3.4 1004393
11:00+10ene2798100 9.9 1002501
14:00+9nnw4698100 4.4 1002387
17:00+9w3996100 9.1 1007741
20:00+9wsw3795100 3.1 1010364
29 may, sun
sun2923:00+7ssw2797100 3.3 1011203
02:00+8ssw3897100 0.2 1011335
05:00+8ssw279897 0.6 1011238
08:00+9ssw369525 0.1 1012316
11:00+11w138997 1.4 1013486
14:00+14wnw247675 1.8 1013995
17:00+15nnw356792 3.3 10131217
20:00+12wnw486654 0.3 1015632